SWA2315 KSFO-KBUR

Flight info

Callsign SWA2315
Flight time 0h 52m
Altitude 41000
Route WESLA5 KTINA CISKO RDHOT ROKKR3
Aircraft B737/M-SADE2E3GIJ4RWZ/LB1D1

Departure

Time 2026-05-05 20:05
Airport San Francisco International Airport (KSFO)

Arrival

Time 2026-05-05 20:58
Airport Hollywood Burbank/Bob Hope Airport (KBUR)
Time Latitude Longitude Altitude Speed Heading
2026-05-05 19:27 37.61659 -122.38259 30 ft 0 kts 359°
2026-05-05 19:54 37.61639 -122.38258 22 ft 2 kts 359°
2026-05-05 19:54 37.61619 -122.38256 22 ft 4 kts 313°
2026-05-05 19:54 37.61616 -122.38236 21 ft 4 kts 256°
2026-05-05 19:54 37.61618 -122.38217 24 ft 4 kts 344°
2026-05-05 19:55 37.61606 -122.38224 21 ft 4 kts 67°
2026-05-05 19:55 37.61616 -122.38204 21 ft 4 kts 57°
2026-05-05 19:55 37.61617 -122.38175 22 ft 4 kts 110°
2026-05-05 19:55 37.61606 -122.38151 23 ft 4 kts 117°
2026-05-05 19:56 37.61594 -122.38120 21 ft 4 kts 117°
2026-05-05 19:56 37.61587 -122.38105 21 ft 0 kts 117°
2026-05-05 20:00 37.61578 -122.38082 23 ft 10 kts 117°
2026-05-05 20:00 37.61606 -122.38008 21 ft 11 kts 30°
2026-05-05 20:00 37.61672 -122.37946 22 ft 13 kts 52°
2026-05-05 20:00 37.61672 -122.37835 21 ft 14 kts 97°
2026-05-05 20:01 37.61659 -122.37691 21 ft 18 kts 97°
2026-05-05 20:01 37.61643 -122.37539 21 ft 17 kts 97°
2026-05-05 20:01 37.61629 -122.37408 21 ft 16 kts 97°
2026-05-05 20:01 37.61612 -122.37267 21 ft 17 kts 105°
2026-05-05 20:02 37.61553 -122.37110 21 ft 19 kts 117°
2026-05-05 20:02 37.61494 -122.36966 21 ft 18 kts 119°
2026-05-05 20:02 37.61412 -122.36850 21 ft 17 kts 132°
2026-05-05 20:02 37.61343 -122.36726 21 ft 17 kts 116°
2026-05-05 20:03 37.61292 -122.36597 21 ft 16 kts 117°
2026-05-05 20:03 37.61241 -122.36472 22 ft 16 kts 117°
2026-05-05 20:03 37.61187 -122.36341 21 ft 16 kts 117°
2026-05-05 20:03 37.61135 -122.36215 21 ft 16 kts 117°
2026-05-05 20:04 37.61079 -122.36081 21 ft 18 kts 118°
2026-05-05 20:04 37.61073 -122.35932 21 ft 18 kts 51°
2026-05-05 20:04 37.61179 -122.35889 21 ft 15 kts 330°
2026-05-05 20:04 37.61236 -122.35997 22 ft 17 kts 297°
2026-05-05 20:05 37.61383 -122.36351 21 ft 80 kts 298°
2026-05-05 20:05 37.61738 -122.37192 27 ft 135 kts 295°
2026-05-05 20:05 37.62058 -122.37959 128 ft 154 kts 297°
2026-05-05 20:05 37.62584 -122.39145 678 ft 162 kts 298°
2026-05-05 20:06 37.63151 -122.40476 1115 ft 185 kts 298°
2026-05-05 20:06 37.63801 -122.42006 1543 ft 212 kts 298°
2026-05-05 20:06 37.64464 -122.43534 2032 ft 226 kts 299°
2026-05-05 20:06 37.65240 -122.45302 2810 ft 233 kts 300°
2026-05-05 20:07 37.66035 -122.47103 3756 ft 237 kts 301°
2026-05-05 20:07 37.66772 -122.48987 4564 ft 249 kts 287°
2026-05-05 20:07 37.66772 -122.51237 5235 ft 265 kts 255°
2026-05-05 20:07 37.65843 -122.53293 6259 ft 279 kts 228°
2026-05-05 20:08 37.64198 -122.54669 7264 ft 293 kts 200°
2026-05-05 20:08 37.62183 -122.54935 8226 ft 301 kts 170°
2026-05-05 20:08 37.60188 -122.54099 9259 ft 305 kts 152°
2026-05-05 20:08 37.58266 -122.52912 10257 ft 311 kts 150°
2026-05-05 20:09 37.56331 -122.51696 10794 ft 335 kts 150°
2026-05-05 20:09 37.54147 -122.50388 11324 ft 356 kts 152°
2026-05-05 20:09 37.51843 -122.49066 12265 ft 362 kts 153°
2026-05-05 20:09 37.49568 -122.47762 13276 ft 366 kts 150°
2026-05-05 20:10 37.47512 -122.45901 14188 ft 365 kts 133°
2026-05-05 20:10 37.45674 -122.43682 15116 ft 368 kts 131°
2026-05-05 20:10 37.43834 -122.41409 16011 ft 373 kts 131°
2026-05-05 20:10 37.42602 -122.39882 16584 ft 376 kts 131°
2026-05-05 20:11 37.41163 -122.38104 17229 ft 381 kts 131°
2026-05-05 20:11 37.39254 -122.35762 18155 ft 385 kts 131°
2026-05-05 20:11 37.37319 -122.33404 18998 ft 388 kts 131°
2026-05-05 20:11 37.35368 -122.31041 19816 ft 391 kts 131°
2026-05-05 20:12 37.33391 -122.28653 20599 ft 395 kts 131°
2026-05-05 20:12 37.31419 -122.26279 21372 ft 399 kts 131°
2026-05-05 20:12 37.29402 -122.23853 22164 ft 403 kts 131°
2026-05-05 20:12 37.27369 -122.21410 22904 ft 408 kts 131°
2026-05-05 20:13 37.25301 -122.18927 23594 ft 413 kts 131°
2026-05-05 20:13 37.23217 -122.16429 24255 ft 415 kts 131°
2026-05-05 20:13 37.21126 -122.13926 24968 ft 416 kts 130°
2026-05-05 20:13 37.19029 -122.11419 25674 ft 417 kts 130°
2026-05-05 20:14 37.16929 -122.08907 26336 ft 418 kts 130°
2026-05-05 20:14 37.14818 -122.06385 27013 ft 420 kts 129°
2026-05-05 20:14 37.12699 -122.03856 27683 ft 421 kts 129°
2026-05-05 20:14 37.10560 -122.01302 28195 ft 425 kts 129°
2026-05-05 20:15 37.08414 -121.98742 28742 ft 428 kts 128°
2026-05-05 20:15 37.06244 -121.96156 29333 ft 430 kts 128°
2026-05-05 20:15 37.04074 -121.93573 29926 ft 432 kts 128°
2026-05-05 20:15 37.01891 -121.90977 30422 ft 433 kts 128°
2026-05-05 20:16 36.99719 -121.88396 30851 ft 436 kts 128°
2026-05-05 20:16 36.97509 -121.85772 31234 ft 440 kts 128°
2026-05-05 20:16 36.95305 -121.83153 31524 ft 445 kts 128°
2026-05-05 20:16 36.93813 -121.81384 31788 ft 446 kts 128°
2026-05-05 20:17 36.93112 -121.80554 31914 ft 446 kts 128°
2026-05-05 20:17 36.90852 -121.77879 32355 ft 448 kts 128°
2026-05-05 20:18 36.88589 -121.75204 32726 ft 449 kts 128°
2026-05-05 20:18 36.86963 -121.73284 33022 ft 449 kts 128°
2026-05-05 20:18 36.84694 -121.70607 33517 ft 447 kts 128°
2026-05-05 20:18 36.82442 -121.67953 34076 ft 444 kts 128°
2026-05-05 20:19 36.80226 -121.65343 34447 ft 443 kts 128°
2026-05-05 20:19 36.77980 -121.62695 34705 ft 446 kts 128°
2026-05-05 20:19 36.75722 -121.60032 34971 ft 447 kts 128°
2026-05-05 20:19 36.73457 -121.57365 35272 ft 448 kts 128°
2026-05-05 20:20 36.71185 -121.54694 35591 ft 448 kts 129°
2026-05-05 20:20 36.68918 -121.52032 35953 ft 448 kts 129°
2026-05-05 20:20 36.66644 -121.49363 36247 ft 449 kts 129°
2026-05-05 20:20 36.64362 -121.46687 36439 ft 452 kts 130°
2026-05-05 20:21 36.62078 -121.44010 36702 ft 453 kts 130°
2026-05-05 20:21 36.59835 -121.41384 36981 ft 453 kts 130°
2026-05-05 20:21 36.57543 -121.38705 37314 ft 452 kts 130°
2026-05-05 20:21 36.55244 -121.36020 37603 ft 453 kts 130°
2026-05-05 20:22 36.52935 -121.33324 37817 ft 454 kts 131°
2026-05-05 20:22 36.50634 -121.30638 38067 ft 455 kts 131°
2026-05-05 20:22 36.48314 -121.27932 38169 ft 459 kts 131°
2026-05-05 20:22 36.45978 -121.25211 38383 ft 461 kts 131°
2026-05-05 20:23 36.43642 -121.22493 38722 ft 459 kts 132°
2026-05-05 20:23 36.41311 -121.19784 38948 ft 459 kts 132°
2026-05-05 20:23 36.38973 -121.17068 39101 ft 461 kts 132°
2026-05-05 20:23 36.36589 -121.14398 39279 ft 463 kts 135°
2026-05-05 20:24 36.34125 -121.11822 39489 ft 464 kts 136°
2026-05-05 20:24 36.31624 -121.09285 39704 ft 464 kts 136°
2026-05-05 20:24 36.29121 -121.06767 39882 ft 464 kts 137°
2026-05-05 20:25 36.24071 -121.01657 39942 ft 470 kts 136°
2026-05-05 20:25 36.21584 -120.99123 40090 ft 467 kts 136°
2026-05-05 20:25 36.19053 -120.96536 40071 ft 466 kts 137°
2026-05-05 20:26 36.14100 -120.91468 40077 ft 464 kts 137°
2026-05-05 20:26 36.09124 -120.86380 40072 ft 464 kts 137°
2026-05-05 20:27 36.05548 -120.82731 40073 ft 463 kts 137°
2026-05-05 20:27 36.00549 -120.77638 39513 ft 470 kts 137°
2026-05-05 20:27 35.98028 -120.75072 38983 ft 469 kts 137°
2026-05-05 20:28 35.95509 -120.72513 38286 ft 469 kts 136°
2026-05-05 20:28 35.92988 -120.69954 37598 ft 468 kts 136°
2026-05-05 20:28 35.90479 -120.67411 36971 ft 465 kts 135°
2026-05-05 20:28 35.87990 -120.64888 36304 ft 464 kts 134°
2026-05-05 20:29 35.85493 -120.62359 35660 ft 462 kts 134°
2026-05-05 20:29 35.83011 -120.59846 34909 ft 462 kts 133°
2026-05-05 20:29 35.80524 -120.57329 34161 ft 462 kts 132°
2026-05-05 20:29 35.78065 -120.54842 33237 ft 463 kts 132°
2026-05-05 20:30 35.75574 -120.52325 32420 ft 462 kts 133°
2026-05-05 20:30 35.73108 -120.49840 31862 ft 455 kts 133°
2026-05-05 20:30 35.70670 -120.47385 31261 ft 451 kts 133°
2026-05-05 20:30 35.68258 -120.44960 30892 ft 442 kts 133°
2026-05-05 20:31 35.65892 -120.42595 30623 ft 436 kts 133°
2026-05-05 20:31 35.63534 -120.40232 30380 ft 445 kts 133°
2026-05-05 20:31 35.61113 -120.37805 30097 ft 452 kts 133°
2026-05-05 20:31 35.58678 -120.35371 29735 ft 448 kts 133°
2026-05-05 20:32 35.56294 -120.32932 29430 ft 443 kts 132°
2026-05-05 20:32 35.53956 -120.30494 29154 ft 439 kts 131°
2026-05-05 20:32 35.51644 -120.28066 28882 ft 437 kts 132°
2026-05-05 20:32 35.49363 -120.25672 28601 ft 436 kts 132°
2026-05-05 20:33 35.47056 -120.23258 28322 ft 437 kts 132°
2026-05-05 20:33 35.44740 -120.20841 28051 ft 437 kts 132°
2026-05-05 20:33 35.42426 -120.18437 27753 ft 433 kts 133°
2026-05-05 20:33 35.40128 -120.16052 27527 ft 435 kts 133°
2026-05-05 20:34 35.37823 -120.13657 27247 ft 438 kts 133°
2026-05-05 20:34 35.35496 -120.11245 27005 ft 436 kts 133°
2026-05-05 20:34 35.33185 -120.08855 26735 ft 435 kts 133°
2026-05-05 20:34 35.30871 -120.06461 26455 ft 434 kts 133°
2026-05-05 20:35 35.28591 -120.04103 26177 ft 434 kts 133°
2026-05-05 20:35 35.26288 -120.01721 25903 ft 433 kts 133°
2026-05-05 20:35 35.23981 -119.99337 25636 ft 433 kts 133°
2026-05-05 20:35 35.21681 -119.96960 25370 ft 433 kts 133°
2026-05-05 20:36 35.19383 -119.94587 25106 ft 433 kts 133°
2026-05-05 20:36 35.17079 -119.92209 24837 ft 432 kts 134°
2026-05-05 20:36 35.14781 -119.89838 24579 ft 432 kts 134°
2026-05-05 20:36 35.12479 -119.87466 24295 ft 432 kts 134°
2026-05-05 20:37 35.10180 -119.85100 24017 ft 431 kts 134°
2026-05-05 20:37 35.08659 -119.83536 23743 ft 433 kts 134°
2026-05-05 20:37 35.05598 -119.80390 23152 ft 424 kts 135°
2026-05-05 20:37 35.03372 -119.78111 22719 ft 411 kts 135°
2026-05-05 20:38 35.01202 -119.75887 22360 ft 406 kts 135°
2026-05-05 20:38 34.99067 -119.73697 21991 ft 404 kts 136°
2026-05-05 20:38 34.96926 -119.71502 21609 ft 402 kts 136°
2026-05-05 20:38 34.94788 -119.69309 21258 ft 400 kts 136°
2026-05-05 20:39 34.92657 -119.67126 20891 ft 399 kts 136°
2026-05-05 20:39 34.90533 -119.64952 20527 ft 398 kts 136°
2026-05-05 20:39 34.88412 -119.62785 20158 ft 398 kts 137°
2026-05-05 20:39 34.86385 -119.60496 19703 ft 397 kts 129°
2026-05-05 20:40 34.84615 -119.57909 19212 ft 398 kts 124°
2026-05-05 20:40 34.82932 -119.55237 18694 ft 395 kts 124°
2026-05-05 20:40 34.81262 -119.52610 18178 ft 391 kts 126°
2026-05-05 20:40 34.79567 -119.50034 17598 ft 387 kts 127°
2026-05-05 20:41 34.77878 -119.47519 17072 ft 382 kts 127°
2026-05-05 20:41 34.76215 -119.45032 16671 ft 374 kts 127°
2026-05-05 20:41 34.74608 -119.42590 16296 ft 367 kts 127°
2026-05-05 20:41 34.73025 -119.40159 15945 ft 364 kts 127°
2026-05-05 20:42 34.71485 -119.37798 15597 ft 362 kts 127°
2026-05-05 20:42 34.69903 -119.35377 15244 ft 360 kts 127°
2026-05-05 20:42 34.68374 -119.33042 14901 ft 358 kts 127°
2026-05-05 20:42 34.66828 -119.30686 14557 ft 356 kts 127°
2026-05-05 20:43 34.65310 -119.28376 14490 ft 343 kts 127°
2026-05-05 20:43 34.63840 -119.26062 13948 ft 346 kts 123°
2026-05-05 20:43 34.62580 -119.23594 13567 ft 342 kts 118°
2026-05-05 20:43 34.61411 -119.21107 13235 ft 336 kts 117°
2026-05-05 20:44 34.60254 -119.18662 12956 ft 332 kts 119°
2026-05-05 20:44 34.59086 -119.16256 12677 ft 329 kts 120°
2026-05-05 20:44 34.57913 -119.13871 12372 ft 328 kts 120°
2026-05-05 20:44 34.56779 -119.11474 12115 ft 327 kts 114°
2026-05-05 20:45 34.55433 -119.07219 11655 ft 320 kts 108°
2026-05-05 20:45 34.54295 -119.04715 11320 ft 316 kts 131°
2026-05-05 20:45 34.52636 -119.03066 11089 ft 308 kts 144°
2026-05-05 20:46 34.50861 -119.01641 10813 ft 302 kts 146°
2026-05-05 20:46 34.49105 -119.00249 10563 ft 301 kts 145°
2026-05-05 20:46 34.47358 -118.98843 10302 ft 302 kts 144°
2026-05-05 20:46 34.45613 -118.97426 10046 ft 300 kts 145°
2026-05-05 20:47 34.43917 -118.96048 9851 ft 287 kts 144°
2026-05-05 20:47 34.42272 -118.94718 9520 ft 280 kts 146°
2026-05-05 20:47 34.40648 -118.93410 9277 ft 282 kts 146°
2026-05-05 20:47 34.38996 -118.92078 9034 ft 286 kts 146°
2026-05-05 20:48 34.37338 -118.90732 8750 ft 286 kts 146°
2026-05-05 20:48 34.35792 -118.89245 8523 ft 282 kts 138°
2026-05-05 20:48 34.34365 -118.87633 8217 ft 276 kts 136°
2026-05-05 20:48 34.33030 -118.86111 8021 ft 261 kts 136°
2026-05-05 20:49 34.31726 -118.84651 7784 ft 249 kts 136°
2026-05-05 20:49 34.30480 -118.83272 7580 ft 237 kts 136°
2026-05-05 20:49 34.29278 -118.81950 7396 ft 232 kts 137°
2026-05-05 20:49 34.28094 -118.80651 7193 ft 228 kts 136°
2026-05-05 20:50 34.26961 -118.79351 7029 ft 223 kts 127°
2026-05-05 20:50 34.26410 -118.78310 6862 ft 219 kts 113°
2026-05-05 20:50 34.25589 -118.76087 6540 ft 216 kts 112°
2026-05-05 20:50 34.24982 -118.74429 6291 ft 216 kts 112°
2026-05-05 20:51 34.24377 -118.72775 6021 ft 215 kts 113°
2026-05-05 20:51 34.23975 -118.71679 5864 ft 214 kts 113°
2026-05-05 20:51 34.23373 -118.70040 5618 ft 213 kts 114°
2026-05-05 20:51 34.22774 -118.68409 5374 ft 212 kts 114°
2026-05-05 20:52 34.22176 -118.66786 5133 ft 211 kts 115°
2026-05-05 20:52 34.21574 -118.65157 4927 ft 215 kts 115°
2026-05-05 20:52 34.20955 -118.63486 4689 ft 220 kts 116°
2026-05-05 20:52 34.20335 -118.61805 4429 ft 218 kts 114°
2026-05-05 20:53 34.20073 -118.60023 4146 ft 215 kts 88°
2026-05-05 20:53 34.20092 -118.58253 3923 ft 208 kts 91°
2026-05-05 20:53 34.20051 -118.56547 3686 ft 196 kts 93°
2026-05-05 20:53 34.20023 -118.54956 3497 ft 183 kts 93°
2026-05-05 20:54 34.20004 -118.53497 3427 ft 160 kts 92°
2026-05-05 20:54 34.19986 -118.52214 3217 ft 146 kts 92°
2026-05-05 20:54 34.19968 -118.51002 3073 ft 146 kts 92°
2026-05-05 20:54 34.19956 -118.49767 2856 ft 147 kts 95°
2026-05-05 20:55 34.19937 -118.48537 2654 ft 145 kts 97°
2026-05-05 20:55 34.19920 -118.47331 2452 ft 141 kts 95°
2026-05-05 20:55 34.19906 -118.46150 2268 ft 146 kts 95°
2026-05-05 20:55 34.19890 -118.44914 2076 ft 147 kts 94°
2026-05-05 20:56 34.19876 -118.43704 1856 ft 141 kts 97°
2026-05-05 20:56 34.19859 -118.42536 1697 ft 141 kts 98°
2026-05-05 20:56 34.19844 -118.41337 1498 ft 143 kts 96°
2026-05-05 20:56 34.19832 -118.40167 1293 ft 136 kts 94°
2026-05-05 20:57 34.19824 -118.39030 1115 ft 133 kts 93°
2026-05-05 20:57 34.19807 -118.37924 915 ft 133 kts 94°
2026-05-05 20:57 34.19795 -118.36903 790 ft 136 kts 94°
2026-05-05 20:57 34.19785 -118.35838 713 ft 105 kts 102°
2026-05-05 20:58 34.19767 -118.35227 708 ft 42 kts 91°
2026-05-05 20:58 34.19764 -118.35050 708 ft 13 kts 94°
2026-05-05 20:58 34.19733 -118.35027 707 ft 6 kts 213°
2026-05-05 20:58 34.19722 -118.35057 702 ft 3 kts 253°
2026-05-05 20:59 34.19719 -118.35084 707 ft 4 kts 272°
2026-05-05 20:59 34.19720 -118.35126 707 ft 6 kts 271°
2026-05-05 20:59 34.19720 -118.35171 708 ft 4 kts 271°
2026-05-05 20:59 34.19721 -118.35206 708 ft 4 kts 271°
2026-05-05 21:00 34.19715 -118.35239 709 ft 4 kts 230°
2026-05-05 21:00 34.19690 -118.35242 712 ft 3 kts 180°
2026-05-05 21:00 34.19679 -118.35242 712 ft 1 kts 182°
2026-05-05 21:00 34.19678 -118.35242 712 ft 0 kts 182°